Regional Weather Roundup
Issued by NWS

Home | Current Version | Previous Version | Graphics & Text | Print | Product List | Glossary On
Versions: 1 2 3 4 5 6 7 8 9 10 11 12 13 14 15 16 17 18 19 20 21 22 23 24 25 26 27 28 29 30 31 32 33 34 35 36 37 38 39 40 41 42 43 44 45 46 47 48 49 50
000
ASUS43 KDTX 222010
RWRMI
MICHIGAN HOURLY REGIONAL WEATHER ROUNDUP
NATIONAL WEATHER SERVICE DETROIT/PONTIAC MI
ISSUED BY NATIONAL WEATHER SERVICE GRAND RAPIDS MI
400 PM EDT THU JUN 22 2017

NOTE: "FAIR" INDICATES FEW OR NO CLOUDS BELOW 12,000 FEET WITH NO
SIGNIFICANT WEATHER AND/OR OBSTRUCTION TO VISIBILITY.

MIZ047>049-052>055-059>063-066>070-074>076-081>083-222100-
SOUTHEAST LOWER MICHIGAN

CITY           SKY/WX    TMP DP  RH WIND       PRES   REMARKS
ADRIAN         CLOUDY    85  67  54 W16G29    29.86S
ALMA           CLOUDY    82  69  65 W9        29.80S
ANN ARBOR      MOSUNNY   84  67  56 S13G23    29.84R
BAD AXE        PTSUNNY   81  70  69 SW7       29.79F
DETROIT CITY   CLOUDY    87  68  52 SW14G25   29.82S HX  90
DETROIT        PTSUNNY   89  63  41 SW21G33   29.84S HX  90
FLINT          CLOUDY    88  62  41 SW14      29.81R
GROSSE ILE     SUNNY     83  69  63 S14G21    29.83S
HILLSDALE      CLOUDY    81  66  61 S13G24    29.87S
HOWELL         MOSUNNY   87  57  36 SW14G23   29.84R

CITY           SKY/WX    TMP DP  RH WIND       PRES   REMARKS
JACKSON        MOSUNNY   87  66  49 SW20G28   29.85R
LANSING        MOSUNNY   88  61  40 SW14G23   29.83R
MASON          PTSUNNY   87  65  47 SW13G22   29.84R
MONROE         MOSUNNY   87  67  50 SW20G25   29.84R HX  90
MT. CLEMENS    CLOUDY    87  63  45 SW14G22   29.81R
PONTIAC        PTSUNNY   86  60  41 SW16G25   29.83R
PORT HOPE        N/A     82  69  64 VRB6      29.76S
PORT HURON     MOSUNNY   84  66  54 SW7       29.81S
TRI CITIES     PTSUNNY   84  70  62 SW14G24   29.78S
YPSILANTI      SUNNY     89  67  47 SW18G26   29.84S HX  92
$$
MIZ043>046-050>051-056>058-064>065-071>073-077>080-222100-
SOUTHWEST LOWER MICHIGAN

CITY           SKY/WX    TMP DP  RH WIND       PRES   REMARKS
BATTLE CREEK   MOSUNNY   87  68  52 SW18G24   29.85S HX  90
BENTON HARBOR  CLOUDY    84  67  56 SW10      29.82F
BIG RAPIDS     CLOUDY    78  65  64 W17G23    29.80R
COLDWATER      CLOUDY    82  67  59 SW14G20   29.86S
HOLLAND        CLOUDY    84  66  54 SW23G29   29.81F
GRAND RAPIDS   PTSUNNY   87  65  47 W14       29.80F
KALAMAZOO      CLOUDY    87  65  47 SW17G28   29.84S
MARSHALL       CLOUDY    86  67  52 SW14G25   29.84F
MOUNT PLEASANT CLOUDY    82  64  54 SW14G20   29.78S
MUSKEGON       CLOUDY    78  67  68 SW16G25   29.81S
STURGIS        CLOUDY    81  69  68 SW14G23   29.85S
$$
MIZ016>042-222100-
NORTHERN LOWER MICHIGAN

CITY           SKY/WX    TMP DP  RH WIND       PRES   REMARKS
ALPENA         MOSUNNY   78  70  76 SW10      29.71F
BEAVER ISLAND  RAIN      63  63 100 SW13G22   29.73S
BELLAIRE       CLOUDY    77  66  68 CALM      29.72F
CADILLAC       CLOUDY    78  67  69 SW14      29.80R
CHARLEVOIX     LGT RAIN  68  68  99 SW8       29.75F
GAYLORD        CLOUDY    77  65  66 W14       29.74F
HOUGHTON LAKE  CLOUDY    79  66  64 SW10      29.77F
MANISTEE       LGT RAIN  73  67  81 S7        29.75F
OSCODA         CLOUDY    78  66  67 S10G23    29.74F
PELLSTON       LGT RAIN  67  64  90 W6        29.72F
TRAVERSE CITY  CLOUDY    80  65  59 SW12G20   29.72R
LUDINGTON      LGT RAIN  72  67  84 S15       29.78F
$$
MIZ007>008-015-222100-
EASTERN UPPER MICHIGAN

CITY           SKY/WX    TMP DP  RH WIND       PRES   REMARKS
KINROSS        CLOUDY    66  63  90 W7        29.72R
MACKINAC ISLAN LGT RAIN  61  61 100 SW6       29.72F VSB 1/2
NEWBERRY       CLOUDY    67  65  93 S7        29.69F
S. S. MARIE    CLOUDY    66  61  84 SE5       29.71R
$$
MIZ004>006-011>014-085-222100-
CENTRAL UPPER MICHIGAN

CITY           SKY/WX    TMP DP  RH WIND       PRES   REMARKS
MANISTIQUE     RAIN      64  61  90 S6        29.69S
ESCANABA       LGT RAIN  69  68  96 W3        29.69F
MENOMINEE      RAIN      68  66  93 VRB7      29.72F
SAWYER-GWINN   LGT RAIN  68  64  88 SW9       29.69F
$$
MIZ001>003-009>011-084-222100-
WESTERN UPPER MICHIGAN

CITY           SKY/WX    TMP DP  RH WIND       PRES   REMARKS
IRON MOUNTAIN  LGT RAIN  68  63  84 S6        29.65F
HOUGHTON       CLOUDY    67  56  67 W13       29.65F
COPPER HARBOR    N/A     59  54  83 N12       29.63F
IRONWOOD       CLOUDY    69  55  60 SW7       29.68F
$$

ABBREVIATIONS USED IN REMARKS
   TC - TEMPERATURE IN CELSIUS
  WCI - WIND CHILL INDEX
   HX - HEAT INDEX
  VSB - VISIBILITY




USA.gov is the U.S. government's official web portal to all federal, state and local government web resources and services.